Council Bluffs, IA

6:13 PM CST on February 19, 2017 (GMT -0600)
Council Bluffs Municipal

Weather History for KCBF - December, 2013

Change the Weather History Date:

Wednesday, December 25, 2013

  Actual Average Record
Temperature  
Mean Temperature 30 °F -  
Max Temperature 39 °F 32 °F 51 °F (2016)
Min Temperature 21 °F 17 °F -4 °F (2000)
Degree Days  
Heating Degree Days 35    
Moisture  
Dew Point 23 °F    
Average Humidity 80    
Maximum Humidity 100    
Minimum Humidity 56    
Precipitation  
Precipitation 0.00 in - - ()
Sea Level Pressure  
Sea Level Pressure 30.22 in    
Wind  
Wind Speed 11 mph (WNW)    
Max Wind Speed 23 mph    
Max Gust Speed 37 mph    
Visibility 10 miles    
Events      
Averages and records for this station are not official NWS values.
T = Trace of Precipitation, MM = Missing Value Source: NWS Daily Summary

Daily Weather History Graph

Daily Weather History Graph

Search for Another Location

Airport or City:

Trip Planner

Search our weather history database for the weather conditions in past years. The results will help you decide how hot, cold, wet, or windy it might be!

Date:

Astronomy

Dec. 25, 2013 Rise Set
Actual Time 7:47 AM CST 4:59 PM CST
Civil Twilight 7:15 AM CST 5:30 PM CST
Nautical Twilight 6:41 AM CST 6:05 PM CST
Astronomical Twilight 6:07 AM CST 6:39 PM CST
Moon 12:12 AM CST (12/25) 12:06 PM CST (12/25)
Length of Visible Light 10h 14m
Length of Day
9h 12m
Waning Gibbous, 48% of the Moon is Illuminated
Dec 25
Waning Gibbous
Jan 1
New
Jan 7
First Quarter
Jan 15
Full
Jan 23
Last Quarter

Hourly Weather History & Observations

Time (CST) Temp. Windchill Dew Point Humidity Pressure Visibility Wind Dir Wind Speed Gust Speed Precip Events Conditions
12:15 AM 23.0 °F 13.9 °F 23.0 °F 100% 30.18 in 6.0 mi WNW 8.1 mph - N/A   Overcast
12:35 AM 23.0 °F 10.6 °F 21.2 °F 93% 30.18 in 9.0 mi NW 13.8 mph - N/A   Overcast
12:55 AM 23.0 °F 10.1 °F 21.2 °F 93% 30.19 in 10.0 mi NW 15.0 mph 20.7 mph N/A   Overcast
1:15 AM 23.0 °F 9.6 °F 19.4 °F 86% 30.19 in 10.0 mi NW 16.1 mph - N/A   Overcast
1:35 AM 23.0 °F 12.4 °F 19.4 °F 86% 30.19 in 10.0 mi NW 10.4 mph 20.7 mph N/A   Overcast
1:55 AM 23.0 °F 12.4 °F 19.4 °F 86% 30.20 in 10.0 mi NW 10.4 mph - N/A   Overcast
2:15 AM 21.2 °F 12.6 °F 19.4 °F 93% 30.20 in 10.0 mi NW 6.9 mph 15.0 mph N/A   Overcast
2:35 AM 21.2 °F 10.9 °F 19.4 °F 93% 30.21 in 10.0 mi NW 9.2 mph 17.3 mph N/A   Overcast
2:55 AM 21.2 °F 10.1 °F 19.4 °F 93% 30.21 in 10.0 mi NW 10.4 mph - N/A   Overcast
3:15 AM 21.2 °F 8.9 °F 19.4 °F 93% 30.20 in 10.0 mi NW 12.7 mph - N/A   Overcast
3:35 AM 21.2 °F 12.6 °F 19.4 °F 93% 30.21 in 10.0 mi NNW 6.9 mph 15.0 mph N/A   Overcast
3:55 AM 21.2 °F 11.7 °F 19.4 °F 93% 30.21 in 10.0 mi NW 8.1 mph - N/A   Overcast
4:15 AM 21.2 °F 14.9 °F 21.2 °F 100% 30.22 in 10.0 mi NW 4.6 mph - N/A   Overcast
4:35 AM 23.0 °F 15.8 °F 21.2 °F 93% 30.22 in 10.0 mi NW 5.8 mph - N/A   Overcast
4:55 AM 23.0 °F - 21.2 °F 93% 30.21 in 10.0 mi Calm Calm - N/A   Overcast
5:15 AM 23.0 °F 18.4 °F 21.2 °F 93% 30.22 in 10.0 mi West 3.5 mph - N/A   Overcast
5:35 AM 23.0 °F 18.4 °F 21.2 °F 93% 30.21 in 10.0 mi SW 3.5 mph - N/A   Overcast
5:55 AM 23.0 °F 18.4 °F 21.2 °F 93% 30.21 in 10.0 mi South 3.5 mph - N/A   Overcast
6:15 AM 23.0 °F 17.0 °F 21.2 °F 93% 30.21 in 10.0 mi South 4.6 mph - N/A   Overcast
6:35 AM 23.0 °F 14.7 °F 21.2 °F 93% 30.20 in 9.0 mi South 6.9 mph - N/A   Overcast
6:55 AM 23.0 °F 13.1 °F 21.2 °F 93% 30.18 in 7.0 mi SSW 9.2 mph - N/A   Overcast
7:15 AM 21.2 °F 9.5 °F 21.2 °F 100% 30.18 in 7.0 mi SSW 11.5 mph - N/A   Overcast
7:35 AM 23.0 °F 13.1 °F 21.2 °F 93% 30.20 in 7.0 mi SW 9.2 mph - N/A   Overcast
7:55 AM 21.2 °F 9.5 °F 21.2 °F 100% 30.19 in 5.0 mi SSW 11.5 mph - N/A   Mostly Cloudy
8:15 AM 21.2 °F 8.9 °F 21.2 °F 100% 30.19 in 6.0 mi SSW 12.7 mph - N/A   Clear
8:35 AM 21.2 °F 8.3 °F 21.2 °F 100% 30.19 in 5.0 mi SW 13.8 mph - N/A   Clear
8:55 AM 21.2 °F 8.3 °F 21.2 °F 100% 30.19 in 6.0 mi SW 13.8 mph - N/A   Clear
9:15 AM 23.0 °F 13.1 °F 21.2 °F 93% 30.20 in 7.0 mi SW 9.2 mph - N/A   Clear
9:35 AM 23.0 °F 13.1 °F 23.0 °F 100% 30.20 in 8.0 mi SW 9.2 mph - N/A   Clear
9:55 AM 24.8 °F 15.3 °F 23.0 °F 93% 30.20 in 10.0 mi WSW 9.2 mph - N/A   Clear
10:15 AM 28.4 °F 18.5 °F 24.8 °F 86% 30.20 in 10.0 mi WSW 11.5 mph - N/A   Clear
10:35 AM 30.2 °F 21.3 °F 24.8 °F 80% 30.21 in 10.0 mi WSW 10.4 mph - N/A   Clear
10:55 AM 33.8 °F 26.4 °F 24.8 °F 70% 30.21 in 10.0 mi West 9.2 mph - N/A   Clear
11:15 AM 35.6 °F 25.9 °F 26.6 °F 70% 30.20 in 10.0 mi WNW 16.1 mph 24.2 mph N/A   Partly Cloudy
11:35 AM 37.4 °F 28.5 °F 28.4 °F 70% 30.20 in 10.0 mi NW 15.0 mph 25.3 mph N/A   Scattered Clouds
11:55 AM 39.2 °F 29.8 °F 28.4 °F 65% 30.19 in 10.0 mi NW 18.4 mph 28.8 mph N/A   Mostly Cloudy
12:15 PM 39.2 °F 30.8 °F 30.2 °F 70% 30.20 in 10.0 mi NW 15.0 mph 36.8 mph N/A   Overcast
12:35 PM 39.2 °F 29.6 °F 30.2 °F 70% 30.19 in 10.0 mi NW 19.6 mph 31.1 mph N/A   Mostly Cloudy
12:55 PM 39.2 °F 30.8 °F 30.2 °F 70% 30.20 in 10.0 mi NW 15.0 mph 28.8 mph N/A   Mostly Cloudy
1:15 PM 39.2 °F 29.6 °F 26.6 °F 61% 30.19 in 10.0 mi NW 19.6 mph 32.2 mph N/A   Overcast
1:35 PM 39.2 °F 29.6 °F 24.8 °F 56% 30.19 in 10.0 mi NW 19.6 mph 28.8 mph N/A   Overcast
1:55 PM 39.2 °F 29.8 °F 24.8 °F 56% 30.20 in 10.0 mi NNW 18.4 mph 28.8 mph N/A   Overcast
2:15 PM 39.2 °F 30.2 °F 24.8 °F 56% 30.20 in 10.0 mi NNW 17.3 mph 27.6 mph N/A   Mostly Cloudy
2:35 PM 39.2 °F 28.7 °F 24.8 °F 56% 30.20 in 10.0 mi NW 23.0 mph 31.1 mph N/A   Partly Cloudy
2:55 PM 39.2 °F 29.8 °F 26.6 °F 61% 30.22 in 10.0 mi NW 18.4 mph 28.8 mph N/A   Mostly Cloudy
3:15 PM 39.2 °F 29.8 °F 24.8 °F 56% 30.22 in 10.0 mi NW 18.4 mph 26.5 mph N/A   Mostly Cloudy
3:35 PM 37.4 °F 27.2 °F 24.8 °F 60% 30.23 in 10.0 mi NW 19.6 mph 28.8 mph N/A   Mostly Cloudy
3:55 PM 37.4 °F 28.2 °F 24.8 °F 60% 30.24 in 10.0 mi NW 16.1 mph 24.2 mph N/A   Overcast
4:15 PM 37.4 °F 27.5 °F 24.8 °F 60% 30.24 in 10.0 mi NW 18.4 mph - N/A   Overcast
4:35 PM 37.4 °F 27.8 °F 26.6 °F 65% 30.25 in 10.0 mi NNW 17.3 mph 25.3 mph N/A   Overcast
4:55 PM 35.6 °F 25.9 °F 26.6 °F 70% 30.25 in 10.0 mi NW 16.1 mph 26.5 mph N/A   Overcast
5:15 PM 35.6 °F 27.5 °F 24.8 °F 65% 30.25 in 10.0 mi NW 11.5 mph 24.2 mph N/A   Mostly Cloudy
5:35 PM 33.8 °F 25.3 °F 24.8 °F 70% 30.25 in 10.0 mi NW 11.5 mph 18.4 mph N/A   Partly Cloudy
5:55 PM 33.8 °F 25.8 °F 24.8 °F 70% 30.26 in 10.0 mi NW 10.4 mph 17.3 mph N/A   Mostly Cloudy
6:15 PM 33.8 °F 24.3 °F 26.6 °F 75% 30.26 in 10.0 mi NNW 13.8 mph 21.9 mph N/A   Overcast
6:35 PM 32.0 °F 24.2 °F 24.8 °F 75% 30.28 in 10.0 mi NNW 9.2 mph 16.1 mph N/A   Overcast
6:55 PM 30.2 °F 21.9 °F 23.0 °F 75% 30.28 in 10.0 mi NNW 9.2 mph - N/A   Scattered Clouds
7:15 PM 30.2 °F 23.4 °F 21.2 °F 69% 30.28 in 10.0 mi NW 6.9 mph - N/A   Clear
7:35 PM 28.4 °F 23.3 °F 19.4 °F 69% 30.29 in 10.0 mi NW 4.6 mph - N/A   Clear
7:55 PM 30.2 °F 25.4 °F 19.4 °F 64% 30.29 in 10.0 mi NNW 4.6 mph - N/A   Clear
8:15 PM 30.2 °F 25.4 °F 19.4 °F 64% 30.28 in 10.0 mi NW 4.6 mph - N/A   Clear
8:35 PM 28.4 °F - 19.4 °F 69% 30.28 in 10.0 mi Calm Calm - N/A   Clear
8:55 PM 30.2 °F 26.7 °F 21.2 °F 69% 30.27 in 10.0 mi WSW 3.5 mph - N/A   Clear
9:15 PM 26.6 °F 20.0 °F 19.4 °F 74% 30.27 in 10.0 mi SSW 5.8 mph - N/A   Clear
9:35 PM 28.4 °F 21.2 °F 23.0 °F 80% 30.26 in 10.0 mi SSW 6.9 mph - N/A   Clear
9:55 PM 28.4 °F 20.4 °F 23.0 °F 80% 30.25 in 10.0 mi SSW 8.1 mph - N/A   Clear
10:15 PM 26.6 °F 18.2 °F 23.0 °F 86% 30.25 in 10.0 mi SSW 8.1 mph - N/A   Clear
10:35 PM 26.6 °F 19.1 °F 23.0 °F 86% 30.24 in 10.0 mi SSW 6.9 mph - N/A   Clear
10:55 PM 26.6 °F 17.5 °F 23.0 °F 86% 30.25 in 10.0 mi SW 9.2 mph - N/A   Clear
11:15 PM 26.6 °F 17.5 °F 23.0 °F 86% 30.25 in 10.0 mi SW 9.2 mph - N/A   Clear
11:35 PM 24.8 °F 15.3 °F 23.0 °F 93% 30.24 in 10.0 mi SSW 9.2 mph - N/A   Clear
11:55 PM 24.8 °F 15.3 °F 23.0 °F 93% 30.24 in 10.0 mi SSW 9.2 mph - N/A   Clear